Location: Knobs
(40.8333°S, 175.2333°E)
Time: 03:14:44
(UTC+00:00)

Cosmos 2369 Rocket - Pass Details

Date: 12 June 2024
Orbit: 828 x 852 km, 71.0° (Epoch: 22 July)

Event Time Altitude Azimuth Distance (km) Brightness Sun altitude
Exits shadow 17:51:46 37° 251° (WSW) 1,298 2.6 -19.9°
Maximum altitude 17:53:07 44° 286° (WNW) 1,168 2.5 -19.7°
Drops below altitude 10° 17:58:26 10° 356° (N) 2,454 4.7 -18.7°
Sets 18:00:56 0° 3° (N) 3,377 5.6 -18.2°
